Location: Chicoutimi
(48.4330°N, 71.0670°W)
Time: 02:05:12
(UTC-04:00)

ISS - Visible Passes

Search period start: 21 September 2014 00:00
Search period end: 01 October 2014 00:00
Orbit: 413 x 417 km, 51.6° (Epoch: 20 September)

Date Brightness Start Highest point End Pass type
(mag) Time Alt. Az. Time Alt. Az. Time Alt. Az.
21 Sep -2.3 04:08:24 46° NE 04:08:24 46° NE 04:10:55 10° ENE visible
21 Sep -2.5 05:41:20 10° WNW 05:44:34 46° N 05:47:48 10° ENE visible
22 Sep -0.1 03:21:28 14° ENE 03:21:28 14° ENE 03:22:01 10° ENE visible
22 Sep -2.5 04:54:21 30° WNW 04:55:35 46° N 04:58:49 10° ENE visible
23 Sep -1.9 04:07:23 39° NE 04:07:23 39° NE 04:09:49 10° ENE visible
23 Sep -2.7 05:40:17 10° WNW 05:43:35 55° NNE 05:46:52 10° E visible
24 Sep 0.0 03:20:25 13° ENE 03:20:25 13° ENE 03:20:49 10° ENE visible
24 Sep -2.6 04:53:17 31° NW 04:54:31 48° N 04:57:46 10° E visible
25 Sep -1.7 04:06:20 35° NE 04:06:20 35° NE 04:08:39 10° ENE visible
25 Sep -3.2 05:39:12 11° WNW 05:42:21 84° NNE 05:45:41 10° ESE visible
26 Sep 0.2 03:19:24 11° ENE 03:19:24 11° ENE 03:19:31 10° ENE visible
26 Sep -3.0 04:52:16 40° NW 04:53:16 64° NNE 04:56:35 10° E visible
27 Sep -1.4 04:05:23 31° ENE 04:05:23 31° ENE 04:07:24 10° E visible
27 Sep -3.0 05:38:15 15° WNW 05:40:51 52° SSW 05:44:05 10° SE visible
28 Sep -3.4 04:51:26 67° W 04:51:46 77° SSW 04:55:05 10° ESE visible
29 Sep -0.9 04:04:43 21° ESE 04:04:43 21° ESE 04:05:55 10° ESE visible
29 Sep -2.0 05:37:36 18° WSW 05:39:02 25° SW 05:41:48 10° SSE visible
30 Sep -2.0 04:51:00 29° S 04:51:00 29° S 04:53:04 10° SE visible
